Regional Weather Roundup
Issued by NWS

Home | Current Version | Previous Version | Graphics & Text | Print | Product List | Glossary On
Versions: 1 2 3 4 5 6 7 8 9 10 11 12 13 14 15 16 17 18 19 20 21 22 23 24 25 26 27 28 29 30 31 32 33 34 35 36 37 38 39 40 41 42 43 44 45 46 47 48 49 50
000
ASUS43 KMKX 302321
RWRWI

WISCONSIN REGIONAL WEATHER ROUNDUP
NATIONAL WEATHER SERVICE MILWAUKEE/SULLIVAN WI
600 PM CDT TUE SEP 30 2014

NOTE: "FAIR" INDICATES FEW OR NO CLOUDS BELOW 12,000 FEET WITH NO
SIGNIFICANT WEATHER AND/OR OBSTRUCTIONS TO VISIBILITY.

WIZ001-002-006>008-014>016-023>028-010000-
NORTHWEST WISCONSIN

CITY           SKY/WX    TMP DP  RH WIND       PRES   REMARKS
SUPERIOR ARPT  MOCLDY    48  44  87 E12G18    29.99S
ASHLAND        MOCLDY    47  42  83 E9        30.02S
HAYWARD        PTCLDY    60  42  51 E3        29.96S
SIREN          CLOUDY    57  44  62 SE5       29.95S
CUMBERLAND     MOCLDY    54  43  66 SE7       29.96S
RICE LAKE      MOCLDY    55  44  67 SE8       29.98S
CHETEK         MOCLDY    55  45  69 SE6       29.97S
LADYSMITH      PTCLDY    58  45  63 S5        29.99R
EAU CLAIRE     CLOUDY    55  43  63 SE7       29.97S
MENOMONIE      CLOUDY    55  43  64 E7        29.97S
NEW RICHMOND   CLOUDY    54  42  64 SE8       29.94S
OSCEOLA        CLOUDY    55  44  66 E14G20    29.96S
$$

WIZ003>005-009-010-017-018-010000-
NORTH CENTRAL WISCONSIN

CITY           SKY/WX    TMP DP  RH WIND       PRES   REMARKS
MANITOWISH WTR CLEAR     54  44  69 E3        30.00F
ARBOR VITAE    CLEAR     57  45  64 E6        30.00F
WOODRUFF       CLEAR     57  45  64 E6        30.00F
RHINELANDER    CLEAR     53  43  68 SE8       30.01F
EAGLE RIVER    CLEAR     55  41  60 E6        30.01S HAZE
LAND O LAKES   CLEAR     56  43  63 SE3       30.02S
PHILLIPS       CLOUDY    55  43  63 E6        29.98S
TOMAHAWK       CLEAR     55  44  66 CALM      30.01R
MEDFORD        MOCLDY    52  43  71 SE6       30.00S
MERRILL        CLEAR     55  44  68 SE5       30.00S
$$

WIZ029-030-035-036-043>047-010000-
CENTRAL WISCONSIN

CITY           SKY/WX    TMP DP  RH WIND       PRES   REMARKS
WAUSAU         PTCLDY    53  43  68 SE8       30.01R
MOSINEE        CLEAR     48  45  87 SE7       30.03R
MARSHFIELD     MOCLDY    51  43  74 SE8       30.00S
STEVENS POINT  MOCLDY    46  41  80 E7        30.03F
WAUPACA        CLOUDY    50  44  79 E6        30.05S
WAUTOMA        NOT AVBL
WISC RAPIDS    MOCLDY    50  41  71 SE9       30.04R
CAMP DOUGLAS   CLOUDY    48  46  93 E8        30.02F
$$

WIZ011>013-019>022-031-037>040-048>050-010000-
NORTHEAST WISCONSIN

CITY           SKY/WX    TMP DP  RH WIND       PRES   REMARKS
ANTIGO         CLEAR     50  43  77 SE8       30.03S
SHAWANO        CLOUDY    50  43  77 S5        30.06R
OCONTO         CLOUDY    49  44  82 CALM      30.05F
STURGEON BAY   NOT AVBL
GREEN BAY      CLOUDY    49  43  80 NE5       30.06S
MANITOWOC      NOT AVBL
APPLETON       CLOUDY    46  41  81 VRB6      30.05S
CLINTONVILLE   CLOUDY    46  41  81 E3        30.05S
OSHKOSH        CLOUDY    49  44  83 E7        30.04F
$$

WIZ032>034-041-042-053>061-010000-
SOUTHWEST WISCONSIN

CITY           SKY/WX    TMP DP  RH WIND       PRES   REMARKS
LA CROSSE      CLOUDY    55  44  66 SE9       29.98S
SPARTA         CLOUDY    47  40  76 SE7       30.02R
VIROQUA        CLOUDY    50  43  77 E7        29.99S
BOSCOBEL       MOCLDY    54  43  66 E6        30.01S
PRAIRIE DU CHI PTCLDY    56  44  64 E7        29.97F
PLATTEVILLE    CLEAR     53  44  71 E10       30.00S
$$

WIZ056-057-062-063-064-067-068-010000-
SOUTH CENTRAL WISCONSIN

CITY           SKY/WX    TMP DP  RH WIND       PRES   REMARKS
REEDSBURG      CLOUDY    47  43  83 E3        30.02F
BARABOO/DELLS  CLOUDY    47  41  78 E7        30.03S
LONE ROCK      CLOUDY    54  42  64 E13       30.02S
MINERAL POINT  MOCLDY    50  43  76 E8        30.00S
MADISON        CLOUDY    50  42  74 SE8       30.03S
MIDDLETON      CLOUDY    51  42  73 E5        30.03S
WATERTOWN      CLOUDY    52  44  74 CALM      30.02S
MONROE         MOCLDY    50  43  76 NE10      30.00S
JANESVILLE     CLEAR     55  43  62 E8        30.01S
$$

WIZ051-052-058>065-066-070>072-010000-
SOUTHEAST WISCONSIN

CITY           SKY/WX    TMP DP  RH WIND       PRES   REMARKS
MILWAUKEE      DRIZZLE   51  46  83 N9        30.04R
WAUKESHA       CLOUDY    48  43  81 E8        30.04R
MILWAUKEE/TIMM CLOUDY    52  45  76 NE6       30.04S
RACINE         CLOUDY    53  48  83 N7        30.04S
BURLINGTON     CLOUDY    51  44  77 E6        30.03R
KENOSHA        CLOUDY    53  48  83 N7        30.03S
FOND DU LAC    CLOUDY    50  43  77 E8        30.05S
SHEBOYGAN      CLOUDY    49  43  80 NE9       30.06R
WEST BEND      CLOUDY    48  41  76 E9        30.04S
JUNEAU         CLOUDY    51  43  75 NE6       30.04S
$$

LSZ147-162-010000-
LAKE SUPERIOR

STATION/POSITION TIME  TEMP    WIND        PRES    WAVE
                       AIR SEA DIR/SP/G            HT/PER
                 (UTC) (F)     (DEG/KT/KT) (MB)    (FT/S)
W MID LAKE BUOY  2250   47 50   70/ 14/ 16 1017.8F   2/ 4
DEVILS ISLAND    2300   47      80/ 17/ 19 1017.1F
SAXON HARBOR     2240   49      60/ 10/ 15 1016.3F
$$

LMZ867-665-643>646-010000-
LAKE MICHIGAN

STATION/POSITION TIME  TEMP    WIND        PRES    WAVE
                       AIR SEA DIR/SP/G            HT/PER
                 (UTC) (F)     (DEG/KT/KT) (MB)    (FT/S)
CHAMBERS ISLAND  2200   51      50/  6/  7 1017.9F
S GREEN BAY BUOY 2300   51                 1018.6F
N MID LAKE BUOY  2250   53 58   40/  6/  8 1018.1R   1/ 3
NORTHPORT PIER   2200   51      30/  3/  7 1017.9S
KEWAUNEE LAKESHO 2200   49      20/  4/  7 1016.9F
SHEBOYGAN LAKESH 2300   49 55   10/  8/  9 1018.5R
PORT WASHINGTON  2240   52      10/  4/  9 1018.3R
ATWATER BUOY     2300   51      10/ 14/ 17 1018.0S
MILWAUKEE LAKESH 2300   51      10/ 13/ 16   N/A
S MID LAKE BUOY  2250   54 62   20/ 12/ 14 1016.6R   4/ 7
KENOSHA   LAKESH 2300   54      40/ 11/ 13 1016.6R
$$

TC  - TEMPERATURE IN CELSIUS
VSB - VISIBILITY IN STATUTE MILES
WCI - WIND CHILL INDEX
HX  - HEAT INDEX



USA.gov is the U.S. government's official web portal to all federal, state and local government web resources and services.